START_TIME,STEP,MOV.,M35,t_acc.,PL05,t_acc.,PL06,t_acc.,PL07,t_acc.
1979-08-06 00:00:22.500 ,0,0,0.,4.8,45.,4.8,9.,4.8,3.,4.8
1979-08-06 00:00:27.300 ,0,0,0.,4.8,50.,4.8,10.,4.8,5.,4.8
1979-08-06 00:00:32.100 ,0,0,0.,4.8,54.,4.8,6.,4.8,2.,4.8
1979-08-06 00:00:36.900 ,0,0,0.,4.8,38.,4.8,11.,4.8,4.,4.8
1979-08-06 00:00:41.700 ,0,0,0.,4.8,52.,4.8,5.,4.8,3.,4.8
1979-08-06 00:00:46.500 ,1,0,0.,4.8,47.,4.8,9.,4.8,1.,4.8
1979-08-06 00:00:51.300 ,1,0,0.,4.8,60.,4.8,6.,4.8,4.,4.8
1979-08-06 00:00:56.100 ,1,0,0.,4.8,34.,4.8,6.,4.8,1.,4.8
1979-08-06 00:01:00.900 ,1,0,0.,4.8,38.,4.8,4.,4.8,2.,4.8
1979-08-06 00:01:05.700 ,1,0,0.,4.8,48.,4.8,5.,4.8,4.,4.8
1979-08-06 00:01:10.500 ,1,0,0.,4.8,37.,4.8,6.,4.8,2.,4.8
1979-08-06 00:01:15.300 ,1,0,0.,4.8,41.,4.8,4.,4.8,1.,4.8
1979-08-06 00:01:20.100 ,1,0,0.,4.8,53.,4.8,5.,4.8,2.,4.8
1979-08-06 00:01:24.900 ,1,0,0.,4.8,44.,4.8,8.,4.8,2.,4.8
1979-08-06 00:01:29.700 ,1,0,0.,4.8,39.,4.8,8.,4.8,1.,4.8
1979-08-06 00:01:34.500 ,2,0,0.,4.8,39.,4.8,6.,4.8,1.,4.8
1979-08-06 00:01:39.300 ,2,0,0.,4.8,46.,4.8,8.,4.8,2.,4.8
1979-08-06 00:01:44.100 ,2,0,0.,4.8,12.,4.8,2.,4.8,0.,4.8
1979-08-06 00:01:48.900 ,2,0,0.,4.8,20.,4.8,2.,4.8,0.,4.8
1979-08-06 00:01:53.700 ,2,0,0.,4.8,20.,4.8,4.,4.8,1.,4.8
1979-08-06 00:01:58.500 ,2,0,0.,4.8,15.,4.8,2.,4.8,3.,4.8
1979-08-06 00:02:03.300 ,2,0,0.,4.8,20.,4.8,2.,4.8,0.,4.8
1979-08-06 00:02:08.100 ,2,0,0.,4.8,17.,4.8,2.,4.8,2.,4.8
1979-08-06 00:02:12.900 ,2,0,0.,4.8,22.,4.8,5.,4.8,2.,4.8
1979-08-06 00:02:17.700 ,2,0,0.,4.8,20.,4.8,2.,4.8,0.,4.8
1979-08-06 00:02:22.500 ,3,0,0.,4.8,21.,4.8,2.,4.8,1.,4.8
1979-08-06 00:02:27.300 ,3,0,0.,4.8,26.,4.8,0.,4.8,1.,4.8
1979-08-06 00:02:32.100 ,3,0,0.,4.8,8.,4.8,0.,4.8,1.,4.8
1979-08-06 00:02:36.900 ,3,0,0.,4.8,14.,4.8,1.,4.8,2.,4.8
1979-08-06 00:02:41.700 ,3,0,0.,4.8,11.,4.8,0.,4.8,0.,4.8
1979-08-06 00:02:46.500 ,3,0,0.,4.8,10.,4.8,1.,4.8,2.,4.8
1979-08-06 00:02:51.300 ,3,0,0.,4.8,5.,4.8,0.,4.8,1.,4.8
1979-08-06 00:02:56.100 ,3,0,0.,4.8,9.,4.8,0.,4.8,0.,4.8
1979-08-06 00:03:00.900 ,3,0,0.,4.8,6.,4.8,3.,4.8,0.,4.8
1979-08-06 00:03:05.700 ,3,0,0.,4.8,7.,4.8,2.,4.8,0.,4.8
1979-08-06 00:03:10.500 ,4,0,0.,4.8,6.,4.8,2.,4.8,0.,4.8
1979-08-06 00:03:15.300 ,4,0,0.,4.8,4.,4.8,0.,4.8,2.,4.8
1979-08-06 00:03:20.100 ,4,0,0.,4.8,5.,4.8,1.,4.8,0.,4.8
1979-08-06 00:03:24.900 ,4,0,0.,4.8,3.,4.8,1.,4.8,1.,4.8
1979-08-06 00:03:29.700 ,4,0,0.,4.8,7.,4.8,0.,4.8,2.,4.8
1979-08-06 00:03:34.500 ,4,0,0.,4.8,6.,4.8,1.,4.8,1.,4.8
1979-08-06 00:03:39.300 ,4,0,0.,4.8,8.,4.8,2.,4.8,2.,4.8
1979-08-06 00:03:44.100 ,4,0,,0,,0,,0,,0
1979-08-06 00:03:48.900 ,4,0,0.,4.8,5.,4.8,1.,4.8,2.,4.8
1979-08-06 00:03:53.700 ,4,0,0.,4.8,8.,4.8,4.,4.8,1.,4.8
1979-08-06 00:03:58.500 ,5,0,0.,4.8,4.,4.8,1.,4.8,1.,4.8
1979-08-06 00:04:03.300 ,5,0,0.,4.8,3.,4.8,0.,4.8,1.,4.8
1979-08-06 00:04:08.100 ,5,0,0.,4.8,5.,4.8,1.,4.8,1.,4.8
1979-08-06 00:04:12.900 ,5,0,0.,4.8,9.,4.8,1.,4.8,0.,4.8
1979-08-06 00:04:17.700 ,5,0,0.,4.8,8.,4.8,3.,4.8,2.,4.8
1979-08-06 00:04:22.500 ,5,0,0.,4.8,6.,4.8,1.,4.8,1.,4.8
1979-08-06 00:04:27.300 ,5,0,0.,4.8,4.,4.8,0.,4.8,3.,4.8
1979-08-06 00:04:32.100 ,5,0,0.,4.8,8.,4.8,1.,4.8,3.,4.8
1979-08-06 00:04:36.900 ,5,0,0.,4.8,9.,4.8,4.,4.8,0.,4.8
1979-08-06 00:04:41.700 ,5,0,0.,4.8,5.,4.8,2.,4.8,2.,4.8
1979-08-06 00:04:46.500 ,6,0,0.,4.8,7.,4.8,1.,4.8,2.,4.8
1979-08-06 00:04:51.300 ,6,0,0.,4.8,6.,4.8,2.,4.8,1.,4.8
1979-08-06 00:04:56.100 ,6,0,0.,4.8,15.,4.8,0.,4.8,1.,4.8
1979-08-06 00:05:00.900 ,6,0,0.,4.8,26.,4.8,2.,4.8,3.,4.8
1979-08-06 00:05:05.700 ,6,0,0.,4.8,15.,4.8,4.,4.8,1.,4.8
1979-08-06 00:05:10.500 ,6,0,0.,4.8,20.,4.8,4.,4.8,0.,4.8
1979-08-06 00:05:15.300 ,6,0,0.,4.8,15.,4.8,4.,4.8,1.,4.8
1979-08-06 00:05:20.100 ,6,0,0.,4.8,16.,4.8,1.,4.8,1.,4.8
1979-08-06 00:05:24.900 ,6,0,0.,4.8,24.,4.8,3.,4.8,2.,4.8
1979-08-06 00:05:29.700 ,6,0,0.,4.8,12.,4.8,2.,4.8,1.,4.8
1979-08-06 00:05:34.500 ,7,0,0.,4.8,9.,4.8,2.,4.8,1.,4.8
1979-08-06 00:05:39.300 ,7,0,0.,4.8,22.,4.8,1.,4.8,0.,4.8
1979-08-06 00:05:44.100 ,7,0,0.,4.8,2.,4.8,0.,4.8,0.,4.8
1979-08-06 00:05:48.900 ,7,0,0.,4.8,3.,4.8,0.,4.8,0.,4.8
1979-08-06 00:05:53.700 ,7,0,0.,4.8,3.,4.8,0.,4.8,0.,4.8
1979-08-06 00:05:58.500 ,7,0,0.,4.8,1.,4.8,0.,4.8,0.,4.8
1979-08-06 00:06:03.300 ,7,0,0.,4.8,2.,4.8,1.,4.8,0.,4.8
1979-08-06 00:06:08.100 ,7,0,0.,4.8,1.,4.8,0.,4.8,0.,4.8
1979-08-06 00:06:12.900 ,7,0,0.,4.8,5.,4.8,0.,4.8,0.,4.8
1979-08-06 00:06:17.700 ,7,0,,0,,0,,0,,0
1979-08-06 00:06:22.500 ,7,0,0.,4.8,2.,4.8,0.,4.8,0.,4.8
1979-08-06 00:06:27.300 ,7,0,0.,4.8,3.,4.8,0.,4.8,0.,4.8
1979-08-06 00:06:32.100 ,7,0,0.,4.8,2.,4.8,0.,4.8,0.,4.8
1979-08-06 00:06:36.900 ,7,0,0.,4.8,2.,4.8,0.,4.8,0.,4.8
1979-08-06 00:06:41.700 ,7,0,0.,4.8,2.,4.8,0.,4.8,0.,4.8
1979-08-06 00:06:46.500 ,7,0,0.,4.8,1.,4.8,0.,4.8,0.,4.8
1979-08-06 00:06:51.300 ,7,0,0.,4.8,0.,4.8,0.,4.8,0.,4.8
1979-08-06 00:06:56.100 ,7,0,0.,4.8,0.,4.8,1.,4.8,0.,4.8
1979-08-06 00:07:00.900 ,7,0,0.,4.8,1.,4.8,0.,4.8,0.,4.8
1979-08-06 00:07:05.700 ,7,0,0.,4.8,3.,4.8,0.,4.8,0.,4.8
1979-08-06 00:07:11.100 ,6,0,0.,4.8,1.,4.8,0.,4.8,1.,4.8
1979-08-06 00:07:15.900 ,6,0,0.,4.8,1.,4.8,0.,4.8,0.,4.8
1979-08-06 00:07:20.700 ,6,0,0.,4.8,12.,4.8,5.,4.8,1.,4.8
1979-08-06 00:07:25.500 ,6,0,0.,4.8,10.,4.8,2.,4.8,1.,4.8
1979-08-06 00:07:30.300 ,6,0,0.,4.8,15.,4.8,4.,4.8,0.,4.8
1979-08-06 00:07:34.500 ,6,0,0.,4.8,12.,4.8,5.,4.8,1.,4.8
1979-08-06 00:07:39.300 ,6,0,0.,4.8,11.,4.8,2.,4.8,1.,4.8
1979-08-06 00:07:44.100 ,6,0,0.,4.8,21.,4.8,5.,4.8,3.,4.8
1979-08-06 00:07:48.900 ,6,0,0.,4.8,19.,4.8,0.,4.8,1.,4.8
1979-08-06 00:07:53.700 ,6,0,0.,4.8,22.,4.8,2.,4.8,2.,4.8
1979-08-06 00:07:58.500 ,5,0,0.,4.8,17.,4.8,3.,4.8,1.,4.8
1979-08-06 00:08:03.300 ,5,0,0.,4.8,16.,4.8,0.,4.8,0.,4.8
1979-08-06 00:08:08.100 ,5,0,0.,4.8,6.,4.8,3.,4.8,0.,4.8
1979-08-06 00:08:12.900 ,5,0,0.,4.8,9.,4.8,1.,4.8,0.,4.8
1979-08-06 00:08:17.700 ,5,0,0.,4.8,7.,4.8,3.,4.8,1.,4.8
1979-08-06 00:08:22.500 ,5,0,0.,4.8,8.,4.8,5.,4.8,0.,4.8
1979-08-06 00:08:27.300 ,5,0,0.,4.8,9.,4.8,4.,4.8,0.,4.8
1979-08-06 00:08:32.100 ,5,0,0.,4.8,16.,4.8,1.,4.8,2.,4.8
1979-08-06 00:08:36.900 ,5,0,0.,4.8,5.,4.8,4.,4.8,0.,4.8
1979-08-06 00:08:41.700 ,5,0,0.,4.8,11.,4.8,1.,4.8,2.,4.8
1979-08-06 00:08:46.500 ,4,0,0.,4.8,5.,4.8,2.,4.8,0.,4.8
1979-08-06 00:08:51.300 ,4,0,0.,4.8,16.,4.8,1.,4.8,1.,4.8
1979-08-06 00:08:56.100 ,4,0,0.,4.8,5.,4.8,1.,4.8,1.,4.8
1979-08-06 00:09:00.900 ,4,0,0.,4.8,7.,4.8,0.,4.8,0.,4.8
1979-08-06 00:09:05.700 ,4,0,0.,4.8,6.,4.8,3.,4.8,0.,4.8
1979-08-06 00:09:10.500 ,4,0,0.,4.8,6.,4.8,1.,4.8,1.,4.8
1979-08-06 00:09:15.300 ,4,0,0.,4.8,5.,4.8,0.,4.8,0.,4.8
1979-08-06 00:09:20.100 ,4,0,0.,4.8,7.,4.8,1.,4.8,2.,4.8
1979-08-06 00:09:24.900 ,4,0,0.,4.8,7.,4.8,0.,4.8,3.,4.8
1979-08-06 00:09:29.700 ,4,0,0.,4.8,8.,4.8,3.,4.8,1.,4.8
1979-08-06 00:09:34.500 ,3,0,0.,4.8,13.,4.8,3.,4.8,0.,4.8
1979-08-06 00:09:39.300 ,3,0,0.,4.8,4.,4.8,0.,4.8,0.,4.8
1979-08-06 00:09:44.100 ,3,0,0.,4.8,4.,4.8,1.,4.8,0.,4.8
1979-08-06 00:09:48.900 ,3,0,0.,4.8,9.,4.8,2.,4.8,0.,4.8
1979-08-06 00:09:53.700 ,3,0,0.,4.8,10.,4.8,3.,4.8,1.,4.8
1979-08-06 00:09:58.500 ,3,0,0.,4.8,11.,4.8,1.,4.8,1.,4.8
1979-08-06 00:10:03.300 ,3,0,0.,4.8,13.,4.8,3.,4.8,2.,4.8
1979-08-06 00:10:08.100 ,3,0,0.,4.8,16.,4.8,0.,4.8,1.,4.8
1979-08-06 00:10:12.900 ,3,0,0.,4.8,8.,4.8,0.,4.8,0.,4.8
1979-08-06 00:10:17.700 ,3,0,0.,4.8,8.,4.8,2.,4.8,2.,4.8
1979-08-06 00:10:22.500 ,2,0,0.,4.8,11.,4.8,0.,4.8,0.,4.8
1979-08-06 00:10:27.300 ,2,0,0.,4.8,16.,4.8,0.,4.8,3.,4.8
1979-08-06 00:10:32.100 ,2,0,0.,4.8,30.,4.8,5.,4.8,0.,4.8
1979-08-06 00:10:36.900 ,2,0,0.,4.8,36.,4.8,3.,4.8,0.,4.8
1979-08-06 00:10:41.700 ,2,0,0.,4.8,28.,4.8,6.,4.8,1.,4.8
1979-08-06 00:10:46.500 ,2,0,0.,4.8,31.,4.8,2.,4.8,0.,4.8
1979-08-06 00:10:51.300 ,2,0,0.,4.8,33.,4.8,2.,4.8,3.,4.8
1979-08-06 00:10:56.100 ,2,0,0.,4.8,29.,4.8,5.,4.8,0.,4.8
1979-08-06 00:11:00.900 ,2,0,0.,4.8,32.,4.8,2.,4.8,1.,4.8
1979-08-06 00:11:05.700 ,2,0,0.,4.8,30.,4.8,2.,4.8,0.,4.8
1979-08-06 00:11:10.500 ,1,0,0.,4.8,24.,4.8,3.,4.8,1.,4.8
1979-08-06 00:11:15.300 ,1,0,0.,4.8,21.,4.8,2.,4.8,0.,4.8
1979-08-06 00:11:20.100 ,1,0,0.,4.8,44.,4.8,5.,4.8,2.,4.8
1979-08-06 00:11:24.900 ,1,0,0.,4.8,50.,4.8,6.,4.8,5.,4.8
1979-08-06 00:11:29.700 ,1,0,0.,4.8,44.,4.8,11.,4.8,4.,4.8
1979-08-06 00:11:34.500 ,1,0,0.,4.8,51.,4.8,8.,4.8,2.,4.8
1979-08-06 00:11:39.300 ,1,0,0.,4.8,41.,4.8,5.,4.8,0.,4.8
1979-08-06 00:11:44.100 ,1,0,0.,4.8,48.,4.8,11.,4.8,1.,4.8
1979-08-06 00:11:48.900 ,1,0,0.,4.8,49.,4.8,8.,4.8,3.,4.8
1979-08-06 00:11:53.700 ,1,0,0.,4.8,31.,4.8,7.,4.8,4.,4.8
1979-08-06 00:11:58.500 ,0,0,0.,4.8,55.,4.8,8.,4.8,5.,4.8
1979-08-06 00:12:03.300 ,0,0,0.,4.8,38.,4.8,10.,4.8,3.,4.8
1979-08-06 00:12:08.100 ,0,0,0.,4.8,61.,4.8,13.,4.8,1.,4.8
1979-08-06 00:12:12.900 ,0,0,0.,4.8,74.,4.8,16.,4.8,3.,4.8
1979-08-06 00:12:17.700 ,0,0,0.,4.8,76.,4.8,10.,4.8,8.,4.8
1979-08-06 00:12:22.500 ,0,0,0.,4.8,74.,4.8,16.,4.8,8.,4.8
1979-08-06 00:12:27.300 ,0,0,0.,4.8,80.,4.8,13.,4.8,7.,4.8
1979-08-06 00:12:32.100 ,0,0,0.,4.8,76.,4.8,13.,4.8,2.,4.8
1979-08-06 00:12:36.900 ,0,0,0.,4.8,76.,4.8,19.,4.8,9.,4.8
1979-08-06 00:12:41.700 ,0,0,0.,4.8,74.,4.8,18.,4.8,8.,4.8
1979-08-06 00:12:46.500 ,0,0,0.,4.8,70.,4.8,9.,4.8,6.,4.8
1979-08-06 00:12:51.300 ,0,0,0.,4.8,66.,4.8,17.,4.8,4.,4.8
1979-08-06 00:12:56.100 ,0,0,1.,4.8,74.,4.8,17.,4.8,14.,4.8
1979-08-06 00:13:00.900 ,0,0,0.,4.8,59.,4.8,9.,4.8,6.,4.8
1979-08-06 00:13:05.700 ,0,0,0.,4.8,78.,4.8,16.,4.8,3.,4.8
1979-08-06 00:13:10.500 ,0,0,0.,4.8,60.,4.8,15.,4.8,8.,4.8
1979-08-06 00:13:15.300 ,0,0,0.,4.8,47.,4.8,16.,4.8,8.,4.8
1979-08-06 00:13:20.100 ,0,0,0.,4.8,64.,4.8,15.,4.8,7.,4.8
1979-08-06 00:13:24.900 ,0,0,0.,4.8,70.,4.8,15.,4.8,10.,4.8
1979-08-06 00:13:29.700 ,0,0,0.,4.8,49.,4.8,13.,4.8,6.,4.8
1979-08-06 00:13:34.500 ,1,0,1.,4.8,59.,4.8,11.,4.8,5.,4.8
1979-08-06 00:13:39.300 ,1,0,0.,4.8,84.,4.8,8.,4.8,7.,4.8
1979-08-06 00:13:44.100 ,1,0,0.,4.8,54.,4.8,15.,4.8,3.,4.8
1979-08-06 00:13:48.900 ,1,0,0.,4.8,56.,4.8,10.,4.8,2.,4.8
1979-08-06 00:13:53.700 ,1,0,0.,4.8,63.,4.8,6.,4.8,1.,4.8
1979-08-06 00:13:58.500 ,1,0,0.,4.8,56.,4.8,8.,4.8,6.,4.8
1979-08-06 00:14:03.300 ,1,0,0.,4.8,50.,4.8,8.,4.8,3.,4.8
1979-08-06 00:14:08.100 ,1,0,0.,4.8,44.,4.8,11.,4.8,6.,4.8
1979-08-06 00:14:12.900 ,1,0,0.,4.8,46.,4.8,7.,4.8,2.,4.8
1979-08-06 00:14:17.700 ,1,0,0.,4.8,52.,4.8,9.,4.8,4.,4.8
1979-08-06 00:14:22.500 ,2,0,0.,4.8,36.,4.8,6.,4.8,1.,4.8
1979-08-06 00:14:27.300 ,2,0,0.,4.8,51.,4.8,6.,4.8,3.,4.8
1979-08-06 00:14:32.100 ,2,0,0.,4.8,22.,4.8,1.,4.8,0.,4.8
1979-08-06 00:14:36.900 ,2,0,0.,4.8,20.,4.8,4.,4.8,1.,4.8
1979-08-06 00:14:41.700 ,2,0,0.,4.8,23.,4.8,5.,4.8,0.,4.8
1979-08-06 00:14:46.500 ,0,0,,0,,0,,0,,0
1979-08-06 00:14:51.300 ,0,0,,0,,0,,0,,0
1979-08-06 00:14:56.100 ,0,0,,0,,0,,0,,0
1979-08-06 00:15:00.900 ,0,0,,0,,0,,0,,0
1979-08-06 00:15:05.700 ,0,0,,0,,0,,0,,0
1979-08-06 00:14:46.500 ,0,0,0.,4.8,23.,4.8,1.,4.8,2.,4.8
1979-08-06 00:14:51.300 ,0,0,0.,4.8,13.,4.8,6.,4.8,1.,4.8
1979-08-06 00:14:56.100 ,0,0,0.,4.8,19.,4.8,3.,4.8,3.,4.8
1979-08-06 00:15:00.900 ,0,0,0.,4.8,26.,4.8,5.,4.8,1.,4.8
1979-08-06 00:15:05.700 ,0,0,0.,4.8,22.,4.8,4.,4.8,3.,4.8
1979-08-06 00:15:12.300 ,3,0,,0,,0,,0,,0
1979-08-06 00:15:17.100 ,3,0,0.,4.8,27.,4.8,1.,4.8,2.,4.8
1979-08-06 00:15:21.900 ,3,0,0.,4.8,16.,4.8,3.,4.8,2.,4.8
1979-08-06 00:15:26.700 ,3,0,0.,4.8,17.,4.8,2.,4.8,1.,4.8
1979-08-06 00:15:31.500 ,3,0,0.,4.8,15.,4.8,1.,4.8,0.,4.8
1979-08-06 00:15:34.500 ,3,0,0.,4.8,12.,4.8,1.,4.8,3.,4.8
1979-08-06 00:15:39.300 ,3,0,0.,4.8,20.,4.8,2.,4.8,2.,4.8
1979-08-06 00:15:44.100 ,3,0,0.,4.8,12.,4.8,0.,4.8,0.,4.8
1979-08-06 00:15:48.900 ,3,0,0.,4.8,17.,4.8,2.,4.8,1.,4.8
1979-08-06 00:15:53.700 ,3,0,0.,4.8,18.,4.8,1.,4.8,0.,4.8
1979-08-06 00:15:58.500 ,4,0,0.,4.8,11.,4.8,3.,4.8,1.,4.8
1979-08-06 00:16:03.300 ,4,0,0.,4.8,10.,4.8,1.,4.8,3.,4.8
1979-08-06 00:16:08.100 ,4,0,0.,4.8,5.,4.8,1.,4.8,1.,4.8
1979-08-06 00:16:12.900 ,4,0,0.,4.8,8.,4.8,3.,4.8,0.,4.8
1979-08-06 00:16:17.700 ,4,0,0.,4.8,8.,4.8,1.,4.8,2.,4.8
1979-08-06 00:16:22.500 ,4,0,0.,4.8,9.,4.8,2.,4.8,1.,4.8
1979-08-06 00:16:27.300 ,4,0,0.,4.8,7.,4.8,1.,4.8,1.,4.8
1979-08-06 00:16:32.100 ,4,0,0.,4.8,6.,4.8,1.,4.8,1.,4.8
1979-08-06 00:16:36.900 ,4,0,0.,4.8,5.,4.8,0.,4.8,0.,4.8
1979-08-06 00:16:41.700 ,4,0,0.,4.8,5.,4.8,3.,4.8,1.,4.8
1979-08-06 00:16:46.500 ,5,0,0.,4.8,13.,4.8,0.,4.8,1.,4.8
1979-08-06 00:16:51.300 ,5,0,0.,4.8,6.,4.8,0.,4.8,1.,4.8
1979-08-06 00:16:56.100 ,5,0,0.,4.8,10.,4.8,2.,4.8,2.,4.8
1979-08-06 00:17:00.900 ,5,0,0.,4.8,6.,4.8,0.,4.8,0.,4.8
1979-08-06 00:17:05.700 ,5,0,0.,4.8,7.,4.8,1.,4.8,0.,4.8
1979-08-06 00:17:10.500 ,5,0,0.,4.8,11.,4.8,2.,4.8,0.,4.8
1979-08-06 00:17:15.300 ,5,0,0.,4.8,5.,4.8,2.,4.8,0.,4.8
1979-08-06 00:17:20.100 ,5,0,0.,4.8,9.,4.8,1.,4.8,2.,4.8
1979-08-06 00:17:24.900 ,5,0,0.,4.8,11.,4.8,2.,4.8,0.,4.8
1979-08-06 00:17:29.700 ,5,0,0.,4.8,9.,4.8,2.,4.8,1.,4.8
1979-08-06 00:17:34.500 ,6,0,0.,4.8,10.,4.8,3.,4.8,1.,4.8
1979-08-06 00:17:39.300 ,6,0,0.,4.8,14.,4.8,3.,4.8,1.,4.8
1979-08-06 00:17:44.100 ,6,0,0.,4.8,21.,4.8,0.,4.8,1.,4.8
1979-08-06 00:17:48.900 ,6,0,0.,4.8,16.,4.8,3.,4.8,2.,4.8
1979-08-06 00:17:53.700 ,6,0,0.,4.8,17.,4.8,5.,4.8,0.,4.8
1979-08-06 00:17:58.500 ,6,0,0.,4.8,22.,4.8,5.,4.8,2.,4.8
1979-08-06 00:18:03.300 ,6,0,0.,4.8,24.,4.8,0.,4.8,1.,4.8
1979-08-06 00:18:08.100 ,6,0,0.,4.8,20.,4.8,4.,4.8,2.,4.8
1979-08-06 00:18:12.900 ,6,0,0.,4.8,17.,4.8,4.,4.8,0.,4.8
1979-08-06 00:18:17.700 ,6,0,0.,4.8,11.,4.8,2.,4.8,1.,4.8
1979-08-06 00:18:22.500 ,7,0,0.,4.8,18.,4.8,2.,4.8,0.,4.8
1979-08-06 00:18:27.300 ,7,0,0.,4.8,16.,4.8,0.,4.8,1.,4.8
1979-08-06 00:18:32.100 ,7,0,0.,4.8,1.,4.8,0.,4.8,0.,4.8
1979-08-06 00:18:36.900 ,7,0,0.,4.8,2.,4.8,0.,4.8,0.,4.8
1979-08-06 00:18:41.700 ,7,0,0.,4.8,1.,4.8,0.,4.8,0.,4.8
1979-08-06 00:18:46.500 ,7,0,0.,4.8,1.,4.8,0.,4.8,0.,4.8
1979-08-06 00:18:51.300 ,7,0,0.,4.8,1.,4.8,0.,4.8,0.,4.8
1979-08-06 00:18:56.100 ,7,0,0.,4.8,1.,4.8,0.,4.8,0.,4.8
1979-08-06 00:19:00.900 ,7,0,0.,4.8,1.,4.8,0.,4.8,0.,4.8
1979-08-06 00:19:05.700 ,7,0,0.,4.8,1.,4.8,0.,4.8,0.,4.8
1979-08-06 00:19:10.500 ,3,1,0.,4.8,7.,4.8,1.,4.8,0.,4.8
1979-08-06 00:19:15.300 ,3,1,0.,4.8,24.,4.8,1.,4.8,2.,4.8
1979-08-06 00:19:20.100 ,3,1,0.,4.8,11.,4.8,0.,4.8,1.,4.8
1979-08-06 00:19:24.900 ,3,1,0.,4.8,4.,4.8,1.,4.8,0.,4.8
1979-08-06 00:19:29.700 ,3,1,0.,4.8,7.,4.8,1.,4.8,3.,4.8
1979-08-06 00:19:34.500 ,0,1,0.,4.8,10.,4.8,1.,4.8,1.,4.8
1979-08-06 00:19:39.300 ,0,1,0.,4.8,12.,4.8,1.,4.8,1.,4.8
1979-08-06 00:19:44.100 ,0,1,0.,4.8,56.,4.8,6.,4.8,4.,4.8
1979-08-06 00:19:48.900 ,0,1,0.,4.8,76.,4.8,15.,4.8,8.,4.8
1979-08-06 00:19:53.700 ,0,1,0.,4.8,96.,4.8,16.,4.8,5.,4.8
1979-08-06 00:19:58.500 ,4,1,1.,4.8,80.,4.8,6.,4.8,3.,4.8
1979-08-06 00:20:03.300 ,4,1,0.,4.8,40.,4.8,8.,4.8,1.,4.8
1979-08-06 00:20:08.100 ,4,1,0.,4.8,16.,4.8,4.,4.8,2.,4.8
1979-08-06 00:20:12.900 ,4,1,0.,4.8,10.,4.8,3.,4.8,2.,4.8
1979-08-06 00:20:17.700 ,4,1,0.,4.8,11.,4.8,1.,4.8,2.,4.8
1979-08-06 00:20:22.500 ,7,1,0.,4.8,6.,4.8,3.,4.8,1.,4.8
1979-08-06 00:20:27.300 ,7,1,0.,4.8,9.,4.8,2.,4.8,0.,4.8
1979-08-06 00:20:32.100 ,7,1,0.,4.8,17.,4.8,4.,4.8,0.,4.8
1979-08-06 00:20:36.900 ,7,1,0.,4.8,2.,4.8,3.,4.8,1.,4.8
1979-08-06 00:20:41.700 ,7,1,0.,4.8,1.,4.8,0.,4.8,1.,4.8
1979-08-06 00:20:46.500 ,3,1,0.,4.8,7.,4.8,0.,4.8,0.,4.8
1979-08-06 00:20:51.300 ,3,1,0.,4.8,15.,4.8,4.,4.8,0.,4.8
1979-08-06 00:20:56.100 ,3,1,0.,4.8,7.,4.8,1.,4.8,1.,4.8
1979-08-06 00:21:00.900 ,3,1,0.,4.8,8.,4.8,0.,4.8,0.,4.8
1979-08-06 00:21:05.700 ,3,1,0.,4.8,8.,4.8,3.,4.8,0.,4.8
1979-08-06 00:21:10.500 ,0,1,0.,4.8,12.,4.8,2.,4.8,0.,4.8
1979-08-06 00:21:15.300 ,0,1,0.,4.8,14.,4.8,0.,4.8,4.,4.8
1979-08-06 00:21:20.100 ,0,1,0.,4.8,25.,4.8,5.,4.8,2.,4.8
1979-08-06 00:21:24.900 ,0,1,0.,4.8,33.,4.8,5.,4.8,3.,4.8
1979-08-06 00:21:29.700 ,0,1,0.,4.8,38.,4.8,9.,4.8,1.,4.8
1979-08-06 00:21:34.500 ,4,1,0.,4.8,38.,4.8,8.,4.8,4.,4.8
1979-08-06 00:21:39.300 ,4,1,0.,4.8,21.,4.8,1.,4.8,2.,4.8
1979-08-06 00:21:44.100 ,4,1,0.,4.8,6.,4.8,2.,4.8,1.,4.8
1979-08-06 00:21:48.900 ,4,1,0.,4.8,5.,4.8,4.,4.8,1.,4.8
1979-08-06 00:21:53.700 ,4,1,0.,4.8,5.,4.8,2.,4.8,2.,4.8
1979-08-06 00:21:58.500 ,7,1,0.,4.8,5.,4.8,1.,4.8,1.,4.8
1979-08-06 00:22:03.300 ,7,1,0.,4.8,7.,4.8,0.,4.8,0.,4.8
1979-08-06 00:22:08.100 ,7,1,0.,4.8,17.,4.8,3.,4.8,1.,4.8
1979-08-06 00:22:12.900 ,7,1,0.,4.8,4.,4.8,0.,4.8,0.,4.8
1979-08-06 00:22:17.700 ,7,1,0.,4.8,1.,4.8,0.,4.8,0.,4.8
1979-08-06 00:22:22.500 ,3,1,0.,4.8,5.,4.8,0.,4.8,0.,4.8
1979-08-06 00:22:27.300 ,3,1,0.,4.8,13.,4.8,2.,4.8,1.,4.8
1979-08-06 00:22:32.100 ,3,1,0.,4.8,11.,4.8,1.,4.8,1.,4.8
1979-08-06 00:22:36.900 ,3,1,0.,4.8,11.,4.8,1.,4.8,1.,4.8
1979-08-06 00:22:41.700 ,3,1,0.,4.8,5.,4.8,2.,4.8,3.,4.8
1979-08-06 00:22:46.500 ,0,1,0.,4.8,3.,4.8,0.,4.8,0.,4.8
1979-08-06 00:22:51.300 ,0,1,0.,4.8,5.,4.8,1.,4.8,1.,4.8
1979-08-06 00:22:56.100 ,0,1,0.,4.8,2.,4.8,0.,4.8,2.,4.8
1979-08-06 00:23:00.900 ,0,1,0.,4.8,6.,4.8,4.,4.8,3.,4.8
1979-08-06 00:23:05.700 ,0,1,0.,4.8,4.,4.8,1.,4.8,0.,4.8
1979-08-06 00:23:10.500 ,4,1,0.,4.8,6.,4.8,1.,4.8,1.,4.8
1979-08-06 00:23:15.300 ,4,1,0.,4.8,4.,4.8,0.,4.8,0.,4.8
1979-08-06 00:23:20.100 ,4,1,0.,4.8,9.,4.8,0.,4.8,1.,4.8
1979-08-06 00:23:24.900 ,4,1,0.,4.8,9.,4.8,0.,4.8,4.,4.8
1979-08-06 00:23:29.700 ,4,1,0.,4.8,7.,4.8,3.,4.8,4.,4.8
1979-08-06 00:23:34.500 ,7,1,0.,4.8,6.,4.8,1.,4.8,3.,4.8
1979-08-06 00:23:39.300 ,7,1,0.,4.8,3.,4.8,2.,4.8,1.,4.8
1979-08-06 00:23:44.100 ,7,1,0.,4.8,2.,4.8,1.,4.8,2.,4.8
1979-08-06 00:23:48.900 ,7,1,0.,4.8,1.,4.8,0.,4.8,0.,4.8
1979-08-06 00:23:53.700 ,7,1,0.,4.8,1.,4.8,0.,4.8,0.,4.8
1979-08-06 00:23:58.500 ,3,1,0.,4.8,2.,4.8,0.,4.8,1.,4.8
1979-08-06 00:24:03.300 ,3,1,0.,4.8,12.,4.8,1.,4.8,1.,4.8
1979-08-06 00:24:08.100 ,3,1,0.,4.8,8.,4.8,2.,4.8,3.,4.8
1979-08-06 00:24:12.900 ,3,1,0.,4.8,9.,4.8,1.,4.8,0.,4.8
1979-08-06 00:24:17.700 ,3,1,0.,4.8,3.,4.8,1.,4.8,0.,4.8
1979-08-06 00:24:22.500 ,0,1,0.,4.8,5.,4.8,0.,4.8,3.,4.8
1979-08-06 00:24:27.300 ,0,1,0.,4.8,5.,4.8,2.,4.8,0.,4.8
1979-08-06 00:24:32.100 ,0,1,0.,4.8,6.,4.8,0.,4.8,0.,4.8
1979-08-06 00:24:36.900 ,0,1,0.,4.8,7.,4.8,2.,4.8,2.,4.8
1979-08-06 00:24:41.700 ,0,1,0.,4.8,10.,4.8,0.,4.8,1.,4.8
1979-08-06 00:24:46.500 ,0,0,0.,4.8,6.,4.8,1.,4.8,0.,4.8
1979-08-06 00:24:51.300 ,0,0,0.,4.8,4.,4.8,2.,4.8,1.,4.8
1979-08-06 00:24:56.100 ,0,0,0.,4.8,6.,4.8,3.,4.8,1.,4.8
1979-08-06 00:25:00.900 ,0,0,0.,4.8,11.,4.8,2.,4.8,1.,4.8
1979-08-06 00:25:05.700 ,0,0,0.,4.8,7.,4.8,1.,4.8,1.,4.8
1979-08-06 00:25:10.500 ,0,0,0.,4.8,4.,4.8,0.,4.8,2.,4.8
1979-08-06 00:25:15.300 ,0,0,0.,4.8,2.,4.8,2.,4.8,1.,4.8
1979-08-06 00:25:20.100 ,0,0,0.,4.8,4.,4.8,0.,4.8,1.,4.8
1979-08-06 00:25:24.900 ,0,0,0.,4.8,3.,4.8,0.,4.8,0.,4.8
1979-08-06 00:25:29.700 ,0,0,0.,4.8,1.,4.8,0.,4.8,1.,4.8
1979-08-06 00:25:34.500 ,3,1,0.,4.8,1.,4.8,0.,4.8,1.,4.8
1979-08-06 00:25:39.300 ,3,1,0.,4.8,5.,4.8,0.,4.8,0.,4.8
1979-08-06 00:25:44.100 ,3,1,0.,4.8,1.,4.8,1.,4.8,2.,4.8
1979-08-06 00:25:48.900 ,3,1,0.,4.8,2.,4.8,1.,4.8,0.,4.8
1979-08-06 00:25:53.700 ,3,1,0.,4.8,3.,4.8,1.,4.8,1.,4.8
1979-08-06 00:25:58.500 ,0,1,0.,4.8,4.,4.8,2.,4.8,0.,4.8
1979-08-06 00:26:03.300 ,0,1,0.,4.8,4.,4.8,4.,4.8,2.,4.8
1979-08-06 00:26:08.100 ,0,1,0.,4.8,3.,4.8,0.,4.8,0.,4.8
1979-08-06 00:26:12.900 ,0,1,0.,4.8,5.,4.8,1.,4.8,0.,4.8
1979-08-06 00:26:17.700 ,0,1,0.,4.8,4.,4.8,3.,4.8,0.,4.8
1979-08-06 00:26:22.500 ,4,1,0.,4.8,3.,4.8,1.,4.8,1.,4.8
1979-08-06 00:26:27.300 ,4,1,0.,4.8,1.,4.8,0.,4.8,0.,4.8
1979-08-06 00:26:32.100 ,4,1,0.,4.8,4.,4.8,3.,4.8,2.,4.8
1979-08-06 00:26:36.900 ,4,1,0.,4.8,6.,4.8,4.,4.8,3.,4.8
1979-08-06 00:26:41.700 ,4,1,0.,4.8,6.,4.8,3.,4.8,1.,4.8
1979-08-06 00:26:46.500 ,7,1,0.,4.8,4.,4.8,1.,4.8,0.,4.8
1979-08-06 00:26:51.300 ,7,1,0.,4.8,3.,4.8,1.,4.8,1.,4.8
1979-08-06 00:26:56.100 ,7,1,0.,4.8,3.,4.8,4.,4.8,1.,4.8
1979-08-06 00:27:00.900 ,7,1,0.,4.8,2.,4.8,1.,4.8,0.,4.8
1979-08-06 00:27:05.700 ,7,1,0.,4.8,0.,4.8,0.,4.8,0.,4.8
1979-08-06 00:27:10.500 ,3,1,0.,4.8,2.,4.8,1.,4.8,0.,4.8
1979-08-06 00:27:15.300 ,3,1,0.,4.8,4.,4.8,3.,4.8,0.,4.8
1979-08-06 00:27:20.100 ,3,1,0.,4.8,6.,4.8,2.,4.8,1.,4.8
1979-08-06 00:27:24.900 ,3,1,0.,4.8,5.,4.8,0.,4.8,1.,4.8
1979-08-06 00:27:29.700 ,3,1,0.,4.8,10.,4.8,2.,4.8,1.,4.8
1979-08-06 00:27:34.500 ,0,1,0.,4.8,7.,4.8,2.,4.8,1.,4.8
1979-08-06 00:27:39.300 ,0,1,0.,4.8,2.,4.8,0.,4.8,0.,4.8
1979-08-06 00:27:44.100 ,0,1,0.,4.8,3.,4.8,0.,4.8,3.,4.8
1979-08-06 00:27:48.900 ,0,1,0.,4.8,3.,4.8,1.,4.8,1.,4.8
1979-08-06 00:27:53.700 ,0,1,0.,4.8,7.,4.8,1.,4.8,1.,4.8
1979-08-06 00:27:58.500 ,4,1,0.,4.8,5.,4.8,1.,4.8,1.,4.8
1979-08-06 00:28:03.300 ,4,1,0.,4.8,6.,4.8,2.,4.8,0.,4.8
1979-08-06 00:28:08.100 ,4,1,0.,4.8,5.,4.8,1.,4.8,0.,4.8
1979-08-06 00:28:12.900 ,4,1,0.,4.8,3.,4.8,1.,4.8,1.,4.8
1979-08-06 00:28:17.700 ,4,1,0.,4.8,1.,4.8,2.,4.8,2.,4.8
1979-08-06 00:28:22.500 ,7,1,0.,4.8,2.,4.8,2.,4.8,1.,4.8
1979-08-06 00:28:27.300 ,7,1,0.,4.8,4.,4.8,0.,4.8,1.,4.8
1979-08-06 00:28:32.100 ,7,1,0.,4.8,5.,4.8,1.,4.8,1.,4.8
1979-08-06 00:28:36.900 ,7,1,0.,4.8,3.,4.8,1.,4.8,1.,4.8
1979-08-06 00:28:41.700 ,7,1,0.,4.8,3.,4.8,0.,4.8,0.,4.8
1979-08-06 00:28:46.500 ,3,1,0.,4.8,2.,4.8,1.,4.8,1.,4.8
1979-08-06 00:28:51.300 ,3,1,0.,4.8,6.,4.8,4.,4.8,0.,4.8
1979-08-06 00:28:56.100 ,3,1,0.,4.8,6.,4.8,3.,4.8,0.,4.8
1979-08-06 00:29:00.900 ,3,1,0.,4.8,7.,4.8,0.,4.8,2.,4.8
1979-08-06 00:29:05.700 ,3,1,0.,4.8,7.,4.8,1.,4.8,2.,4.8
1979-08-06 00:29:10.500 ,0,1,0.,4.8,4.,4.8,4.,4.8,0.,4.8
1979-08-06 00:29:15.300 ,0,1,0.,4.8,3.,4.8,1.,4.8,0.,4.8
1979-08-06 00:29:20.100 ,0,1,0.,4.8,1.,4.8,1.,4.8,2.,4.8
1979-08-06 00:29:24.900 ,0,1,0.,4.8,2.,4.8,2.,4.8,0.,4.8
1979-08-06 00:29:29.700 ,0,1,0.,4.8,1.,4.8,1.,4.8,0.,4.8
1979-08-06 00:29:34.500 ,0,0,0.,4.8,5.,4.8,0.,4.8,0.,4.8
1979-08-06 00:29:39.300 ,0,0,0.,4.8,4.,4.8,1.,4.8,0.,4.8
1979-08-06 00:29:44.100 ,0,0,0.,4.8,8.,4.8,1.,4.8,2.,4.8
1979-08-06 00:29:48.900 ,0,0,0.,4.8,4.,4.8,2.,4.8,1.,4.8
1979-08-06 00:29:53.700 ,0,0,0.,4.8,4.,4.8,1.,4.8,0.,4.8
1979-08-06 00:29:58.500 ,0,0,0.,4.8,2.,4.8,0.,4.8,0.,4.8
1979-08-06 00:30:03.300 ,0,0,0.,4.8,3.,4.8,3.,4.8,0.,4.8
1979-08-06 00:30:08.100 ,0,0,0.,4.8,8.,4.8,0.,4.8,1.,4.8
1979-08-06 00:30:12.900 ,0,0,0.,4.8,0.,4.8,1.,4.8,0.,4.8
1979-08-06 00:30:17.700 ,0,0,0.,4.8,0.,4.8,0.,4.8,1.,4.8
1979-08-06 00:30:22.500 ,5,0,0.,4.8,0.,4.8,0.,4.8,0.,4.8
1979-08-06 00:30:27.300 ,5,0,0.,4.8,2.,4.8,1.,4.8,2.,4.8
1979-08-06 00:30:32.100 ,5,0,0.,4.8,3.,4.8,3.,4.8,0.,4.8
1979-08-06 00:30:36.900 ,5,0,0.,4.8,5.,4.8,2.,4.8,1.,4.8
1979-08-06 00:30:41.700 ,5,0,0.,4.8,5.,4.8,1.,4.8,1.,4.8
1979-08-06 00:30:46.500 ,5,0,0.,4.8,1.,4.8,1.,4.8,1.,4.8
1979-08-06 00:30:51.300 ,5,0,0.,4.8,3.,4.8,2.,4.8,0.,4.8
1979-08-06 00:30:56.100 ,5,0,0.,4.8,5.,4.8,1.,4.8,3.,4.8
1979-08-06 00:31:00.900 ,5,0,0.,4.8,4.,4.8,0.,4.8,1.,4.8
1979-08-06 00:31:05.700 ,5,0,0.,4.8,13.,4.8,2.,4.8,0.,4.8
1979-08-06 00:31:10.500 ,4,0,0.,4.8,0.,4.8,2.,4.8,3.,4.8
1979-08-06 00:31:15.300 ,4,0,0.,4.8,2.,4.8,0.,4.8,0.,4.8
1979-08-06 00:31:20.100 ,4,0,0.,4.8,3.,4.8,3.,4.8,0.,4.8
1979-08-06 00:31:24.900 ,4,0,0.,4.8,3.,4.8,3.,4.8,2.,4.8
1979-08-06 00:31:29.700 ,4,0,0.,4.8,5.,4.8,3.,4.8,1.,4.8
1979-08-06 00:31:34.500 ,4,0,0.,4.8,5.,4.8,0.,4.8,0.,4.8
1979-08-06 00:31:39.300 ,4,0,0.,4.8,5.,4.8,2.,4.8,0.,4.8
1979-08-06 00:31:44.100 ,4,0,0.,4.8,7.,4.8,3.,4.8,1.,4.8
1979-08-06 00:31:48.900 ,4,0,0.,4.8,3.,4.8,1.,4.8,0.,4.8
1979-08-06 00:31:53.700 ,4,0,0.,4.8,3.,4.8,1.,4.8,0.,4.8
1979-08-06 00:31:58.500 ,3,0,0.,4.8,1.,4.8,0.,4.8,0.,4.8
1979-08-06 00:32:03.300 ,3,0,0.,4.8,7.,4.8,1.,4.8,1.,4.8
1979-08-06 00:32:08.100 ,3,0,0.,4.8,3.,4.8,2.,4.8,0.,4.8
1979-08-06 00:32:12.900 ,3,0,0.,4.8,5.,4.8,1.,4.8,3.,4.8
1979-08-06 00:32:17.700 ,3,0,0.,4.8,5.,4.8,2.,4.8,1.,4.8
1979-08-06 00:32:22.500 ,3,0,0.,4.8,3.,4.8,2.,4.8,1.,4.8
1979-08-06 00:32:27.300 ,3,0,0.,4.8,3.,4.8,0.,4.8,0.,4.8
1979-08-06 00:32:32.100 ,3,0,0.,4.8,3.,4.8,1.,4.8,0.,4.8
1979-08-06 00:32:36.900 ,3,0,0.,4.8,1.,4.8,0.,4.8,2.,4.8
1979-08-06 00:32:41.700 ,3,0,0.,4.8,4.,4.8,0.,4.8,1.,4.8
1979-08-06 00:32:46.500 ,2,0,0.,4.8,1.,4.8,2.,4.8,0.,4.8